Olympia, WA
on Thursday, December 13, 2012

Thursday
Previous Day Next Day
Daily Summary
 ActualAverageRecord
Temperature
Mean Temperature °F 38°F  
Max Temperature 44°F 44°F 60°F (1952)
Min Temperature 38°F 32°F 12°F (1967)
Degree Days
Heating Degree Days 24 27  
Month to date heating degree days 282 340  
Since 1 July heating degree days 1669 1785  
Cooling Degree Days 0 0  
Month to date cooling degree days 0 0  
Year to date cooling degree days 82 106  
Moisture
Dew Point 38°F   
Average Humidity 88    
Maximum Humidity 100    
Minimum Humidity 76    
Precipitation
Precipitation 0.16 in 0.24 in 2.12 in (2001)
Month to date precipitation 4.01 3.37  
Year to date precipitation 53.86 45.91  
Wind
Wind Speed 5 mph   
Max Wind Speed 12 mph   
Max Gust Speed 15 mph   
Visibility 6 miles   
Events Fog , Rain   

Key: T is trace of precipitation, MM is missing value
Source: NWS Daily Summary
Time(PST)TemperatureDew PointHumidity Pressure Visibility Wind DirectionWind SpeedGust SpeedPrecipitationEvents Conditions
12:06 AM 39.0°F 37.9°F 96% 30.03 in 4.0 miles Calm Calm - N/A Fog Shallow Fog
12:13 AM 37.9°F 37.9°F 100% 30.03 in 4.0 miles Calm Calm - N/A Fog Shallow Fog
12:16 AM 37.9°F 37.9°F 100% 30.03 in 4.0 miles Calm Calm - N/A Fog Shallow Fog
12:39 AM 39.0°F 37.9°F 96% 30.03 in 4.0 miles Calm Calm - N/A Fog Shallow Fog
12:54 AM 39.0°F 37.9°F 96% 30.03 in 2.5 miles Calm Calm - N/A Fog Shallow Fog
1:03 AM 39.0°F 39.0°F 100% 30.02 in 3.0 miles Calm Calm - N/A Fog Shallow Fog
1:17 AM 39.0°F 37.9°F 96% 30.03 in 3.0 miles Calm Calm - N/A Fog Shallow Fog
1:31 AM 39.0°F 37.9°F 96% 30.03 in 2.5 miles Calm Calm - N/A Fog Shallow Fog
1:51 AM 39.2°F 37.4°F 93% 30.04 in 3.0 miles Calm Calm - N/A Fog Shallow Fog
1:54 AM 39.0°F 37.9°F 96% 30.04 in 3.0 miles Calm Calm - N/A Fog Shallow Fog
2:54 AM 39.0°F 37.9°F 96% 30.04 in 5.0 miles Calm Calm - N/A Fog Shallow Fog
3:50 AM 39.2°F 37.4°F 93% 30.05 in 5.0 miles Calm Calm - N/A Fog Shallow Fog
3:54 AM 39.0°F 37.9°F 96% 30.05 in 5.0 miles Calm Calm - N/A Fog Shallow Fog
4:54 AM 39.0°F 37.9°F 96% 30.06 in 5.0 miles Calm Calm - N/A Fog Shallow Fog
5:54 AM 37.9°F 37.0°F 97% 30.04 in 6.0 miles SE 4.6 mph - N/A Fog Shallow Fog
6:54 AM 39.0°F 37.9°F 96% 30.05 in 7.0 miles Calm Calm - N/A Fog Shallow Fog
7:24 AM 37.9°F 37.9°F 100% 30.04 in 5.0 miles SSW 4.6 mph - N/A Fog Shallow Fog
7:32 AM 37.4°F 37.4°F 100% 30.04 in 6.0 miles Calm Calm - N/A Fog Shallow Fog
7:54 AM 37.9°F 37.9°F 100% 30.04 in 4.0 miles Calm Calm - N/A Fog Shallow Fog
8:01 AM 37.9°F 37.9°F 100% 30.03 in 10.0 miles Calm Calm - N/A   Overcast
8:12 AM 37.9°F 37.9°F 100% 30.03 in 10.0 miles SW 3.5 mph - N/A   Overcast
8:54 AM 37.9°F 37.0°F 97% 30.03 in 10.0 miles SW 3.5 mph - N/A   Overcast
9:54 AM 39.0°F 37.0°F 93% 30.01 in 10.0 miles SSW 3.5 mph - N/A   Overcast
10:54 AM 41.0°F 37.0°F 86% 30.00 in 10.0 miles SSW 4.6 mph - N/A   Overcast
11:54 AM 42.1°F 36.0°F 79% 29.98 in 10.0 miles SSW 10.4 mph - N/A   Scattered Clouds
12:54 PM 43.0°F 37.0°F 80% 29.95 in 10.0 miles South 6.9 mph - N/A   Overcast
1:54 PM 44.1°F 37.0°F 76% 29.92 in 10.0 miles SSW 8.1 mph - N/A   Mostly Cloudy
4:54 PM 42.8°F 35.6°F 76% 29.86 in 10.0 miles SSW 6.9 mph - N/A Rain Light Rain
5:54 PM 41.0°F 37.0°F 86% 29.86 in 8.0 miles SW 6.9 mph - 0.00 in Rain Light Rain
6:54 PM 39.9°F 37.9°F 93% 29.84 in 9.0 miles SW 4.6 mph - 0.02 in   Overcast
7:54 PM 39.9°F 37.9°F 93% 29.84 in 6.0 miles SSW 5.8 mph - 0.02 in Rain Light Rain
8:54 PM 39.9°F 37.9°F 93% 29.84 in 6.0 miles SSW 5.8 mph - 0.02 in Rain Light Rain
9:05 PM 39.9°F 37.9°F 93% 29.83 in 6.0 miles SSW 8.1 mph - 0.00 in Rain Light Rain
9:54 PM 39.9°F 37.9°F 93% 29.83 in 6.0 miles SSW 6.9 mph - 0.03 in Rain Light Rain
10:06 PM 39.9°F 37.9°F 93% 29.83 in 5.0 miles SSW 6.9 mph - 0.01 in Rain Light Rain
10:54 PM 39.9°F 37.9°F 93% 29.83 in 6.0 miles South 11.5 mph - 0.04 in Rain Light Rain
11:25 PM 39.9°F 37.9°F 93% 29.82 in 6.0 miles SSW 8.1 mph - 0.01 in Rain Light Rain
11:33 PM 39.9°F 37.9°F 93% 29.82 in 6.0 miles SSW 6.9 mph - 0.02 in Rain Light Rain
11:45 PM 39.9°F 37.9°F 93% 29.82 in 5.0 miles SSW 4.6 mph - 0.02 in Rain Light Rain
11:54 PM 39.9°F 37.9°F 93% 29.82 in 6.0 miles SSW 4.6 mph - 0.02 in Rain Light Rain
Moon Phase
Dec. 13 Dec. 20 Dec. 28 Jan. 04 Jan. 11
Sunrise:07:49 AM (PST) Moon Rise:08:02 AM (PST)12/13
Sunset:04:22 PM (PST) Moon Set:05:13 PM (PST)12/13

Copyright © 2014 The Weather Underground, Inc.